{"data":{"norad_id":58010,"intl_designator":"2023-153V","name":"STARLINK-30520","alt_names":[],"object_type":"PAYLOAD","status":"ACTIVE","operator":null,"country":"US","launch_date":"2023-10-05","launch_site_code":"AFETR","launch_vehicle":null,"mission":null,"orbit_class":"UNKNOWN","rcs_meters":null,"size_class":null,"mass_kg":null,"dimensions":null,"purposes":["comms"],"wikipedia_slug":null,"has_3d_model":false,"image_url":null,"decayed_at":null,"tle_current":{"epoch":"2026-09-20T09:17:53.509632Z","epoch_age_seconds":147374,"freshness":"FRESH","line1":"1 58010U 23153V   26263.38742488 -.00000327  00000+0 -23401-5 0  9999","line2":"2 58010  43.0066  47.4183 0001707 267.9593  92.1063 15.27572753164576","mean_motion":15.27572753,"eccentricity":0.0001707,"inclination_deg":43.0066,"raan_deg":47.4183,"arg_perigee_deg":267.9593,"mean_anomaly_deg":92.1063,"bstar":-2.3401e-6,"rev_number":16457,"period_min":94.267195927132,"perigee_km":481.89958807972,"apogee_km":484.24200442136,"semimajor_km":6861.2077962505,"source":"CELESTRAK","updated_at":"2026-09-21T09:00:33.756750Z"}}}